[[{"header":{"parameterUnit":"m.s-1","parameterCategory":1,"la1":30.2991,"la2":30.254,"lo1":-89.0895,"lo2":-89.0444,"dy":0.0017,"dx":0.0017,"nx":28,"ny":28,"refTime":"2023-05-28T21:00:00:Z","depth":0,"parameterNumber":2,"parameterNumberName":"U-component_of_WINDS"},"data":[0,0,0,0,0,0,0,0,0,0,0,0,0,0,0,0,0,0,0,0,0,0,0,0,0,0,0,0,0,0,0,0,0,0,0,0,0,0,0,0,0,0,0,0,0,0,0,0,0,0,0,0,0,0,0,0,0,0,2.6984,2.6985,0,2.7065,2.7066,2.7067,2.7007,2.7005,2.7002,2.7,2.7083,2.7088,2.7093,0,0,0,0,0,0,0,0,0,0,0,0,0,2.6777,2.6781,2.6984,2.6985,2.6986,2.7065,2.7066,2.7067,2.7008,2.7005,2.7002,2.6999,2.7082,2.7087,2.7093,0,0,0,0,0,0,0,0,0,0,0,0,0,2.6863,2.6782,2.6984,2.6966,2.6965,2.7065,2.7066,2.7068,2.7009,2.7005,2.7001,2.6997,2.708,2.7087,2.7094,2.7216,0,0,2.7115,2.7118,0,0,0,0,0,0,0,0,2.6858,2.6871,2.6967,2.6967,2.6966,2.7022,2.7024,2.7117,2.701,2.6992,2.7,2.6995,2.7066,2.7074,2.7098,2.722,2.7223,2.7116,2.712,2.7123,2.7125,0,0,0,0,0,0,0,2.6852,2.6867,2.7016,2.6969,2.6968,2.6953,2.6961,2.7041,2.705,2.6993,2.6989,2.7,2.7065,2.7091,2.71,2.7225,2.7116,2.7122,2.7126,2.7129,2.7449,2.7453,0,0,0,0,0,0,2.6848,2.6862,2.7013,2.7018,2.6902,2.696,2.6969,2.7008,2.7049,2.7052,2.7003,2.6996,2.7081,2.7091,2.7102,2.7247,2.7123,2.713,2.7134,2.7445,2.745,2.7455,0,0,0,0,0,0,2.6844,2.6862,2.701,2.6939,2.6957,2.6968,2.7012,2.7012,2.7038,2.7056,2.7058,2.7028,2.7079,2.7092,2.7188,2.7249,2.7133,2.7139,2.744,2.7447,2.7453,2.7538,0,0,0,0,0,0,2.6838,2.6861,2.6908,2.6941,2.6961,2.7095,2.7016,2.7016,2.705,2.7043,2.708,2.7083,2.7077,2.7178,2.7195,2.7257,2.7145,2.7435,2.7443,2.7451,2.753,2.7547,2.7561,0,0,0,0,0,2.6831,2.6929,2.691,2.6929,2.702,2.7098,2.711,2.7101,2.7055,2.7102,2.7114,2.7082,2.724,2.7188,2.7207,2.7272,2.7431,2.7441,2.745,2.7523,2.7544,2.7561,0,0,0,0,0,0,2.6903,2.6933,2.6913,2.7024,2.7059,2.7088,2.7147,2.7123,2.7171,2.7162,2.7149,2.7158,2.7258,2.7274,2.7216,2.7391,2.7328,2.7342,2.7377,2.7397,2.7412,2.7406,2.715,0,0,0,0,0,2.6932,2.6993,2.7016,2.7112,2.7131,2.7136,2.717,2.716,2.7195,2.721,2.7229,2.7265,2.7322,2.736,2.7414,2.7532,2.7539,2.7586,2.7602,2.7614,2.7627,2.7689,2.771,2.7487,2.7487,2.7487,0,0,2.6992,2.7016,2.7056,2.7127,2.7153,2.7217,2.7149,2.7219,2.7266,2.7221,2.7312,2.7327,2.7366,2.7473,2.7521,2.7489,2.769,2.7627,2.7637,2.7642,2.7701,2.7723,2.7741,2.7493,2.7492,2.7491,0,0,2.7134,2.7159,2.7241,2.7268,2.7308,2.7311,2.7331,2.7363,2.7371,2.7462,2.7429,2.7485,2.7585,2.7614,2.7641,2.7794,2.7766,2.7812,2.7893,2.7955,2.7972,2.7988,2.8041,2.8061,2.7824,2.7824,2.7824,0,2.7204,2.7299,2.7287,2.736,2.7392,2.7353,2.7436,2.7463,2.7519,2.7542,2.7506,2.7629,2.7653,2.7766,2.7803,2.7827,2.7849,2.7807,2.7971,2.7986,2.8,2.8051,2.8072,2.7829,2.7829,2.7828,2.7828,0,2.7382,2.7449,2.751,2.7565,2.7604,2.7682,2.7681,2.7722,2.7708,2.7715,2.7807,2.7834,2.7893,2.7919,2.7906,2.803,2.8009,2.7972,2.7908,2.8027,2.8075,2.8094,2.7837,2.7835,2.7833,2.7832,0,0,2.7573,2.7619,2.7642,2.7665,2.7706,2.7757,2.7832,2.7889,2.7924,2.7964,2.8027,2.8112,2.8078,2.8109,2.81,2.8153,2.8271,2.811,2.8111,2.8139,2.8408,2.8435,2.8458,2.8253,2.8257,2.826,2.8405,0,2.7717,2.7848,2.7839,2.7963,2.8024,2.7987,2.8053,2.8085,2.8093,2.8145,2.8153,2.8214,2.8165,2.8183,2.8235,2.8246,2.8325,2.8236,2.8311,2.8314,2.8302,2.8483,2.8512,2.8648,2.8423,2.8426,2.8429,0,2.7903,2.7948,2.8078,2.8108,2.8133,2.8193,2.8243,2.8294,2.8329,2.8331,2.8366,2.8347,2.8423,2.8357,2.8461,2.84,2.843,2.8441,2.8446,2.8452,2.8378,2.8494,2.8691,2.8711,2.8458,2.8456,2.8454,0,2.8028,2.8121,2.8211,2.8232,2.8271,2.8313,2.8331,2.8362,2.8396,2.8441,2.8463,2.8516,2.8545,2.8586,2.8582,2.8534,2.8687,2.8621,2.8691,2.8691,2.8724,2.8722,2.8928,2.8745,2.8745,2.8744,2.8744,0,2.8189,2.827,2.8267,2.8323,2.8412,2.84,2.8489,2.8502,2.853,2.8586,2.8558,2.8612,2.8603,2.8657,2.8654,2.874,2.8754,2.8757,2.8755,2.8759,2.8759,2.8779,2.8769,2.875,2.8748,2.8747,2.8746,0,2.8345,2.8346,2.8441,2.8469,2.8478,2.8542,2.8566,2.8618,2.8623,2.8695,2.8711,2.8719,2.8781,2.8781,2.8852,2.8849,2.8955,2.8943,2.8943,2.894,2.9009,2.9003,2.9235,2.9265,2.9062,2.9064,2.9066,0,2.8447,2.8509,2.8543,2.8579,2.8599,2.8657,2.8692,2.8683,2.872,2.8764,2.8811,2.8869,2.8916,2.9016,2.9029,2.9082,2.9071,2.9148,2.9078,2.908,2.9071,2.9067,2.9073,2.9162,2.9164,2.9166,2.9168,0,2.863,2.8627,2.8678,2.873,2.8772,2.8812,2.8849,2.888,2.8875,2.8918,2.898,2.9017,2.9088,2.9147,2.9198,2.9216,2.9191,2.9189,2.9208,2.9213,2.921,2.9212,2.898,2.9184,2.9182,2.9181,2.918,2.918,2.8762,2.8814,2.8846,2.8903,2.893,2.8965,2.9015,2.9026,2.9078,2.9135,2.9126,2.9196,2.9228,2.9295,2.9317,2.9371,2.9344,2.9372,2.9378,2.9385,2.9392,2.9202,2.9381,2.938,2.938,2.938,2.9379,0,2.8942,2.896,2.9014,2.9066,2.9111,2.9083,2.9122,2.9162,2.9223,2.9256,2.9302,2.9373,2.943,2.9446,2.95,2.954,2.953,2.9555,2.9552,2.9556,2.9414,2.9392,2.9562,2.9562,2.9562,2.9562,2.9562,2.9562,2.9041,2.9128,2.9129,2.9228,2.9246,2.9314,2.9338,2.937,2.9396,2.9476,2.9523,2.9533,2.9559,2.9615,2.9665,2.9668,2.9689,2.9719,2.9718,2.9585,2.9566,2.9549,2.9528,2.9724,2.9724,2.9855,2.9856,2.9857]},{"header":{"parameterUnit":"m.s-1","parameterCategory":1,"la1":30.2991,"la2":30.254,"lo1":-89.0895,"lo2":-89.0444,"dy":0.0017,"dx":0.0017,"nx":28,"ny":28,"refTime":"2023-05-28T21:00:00:Z","depth":0,"parameterNumber":3,"parameterNumberName":"V-component_of_WINDS"},"data":[0,0,0,0,0,0,0,0,0,0,0,0,0,0,0,0,0,0,0,0,0,0,0,0,0,0,0,0,0,0,0,0,0,0,0,0,0,0,0,0,0,0,0,0,0,0,0,0,0,0,0,0,0,0,0,0,0,0,-1.1961,-1.1962,0,-1.2026,-1.2027,-1.2027,-1.2056,-1.2056,-1.2056,-1.2056,-1.2119,-1.2121,-1.2122,0,0,0,0,0,0,0,0,0,0,0,0,0,-1.1859,-1.1861,-1.1961,-1.1962,-1.1962,-1.2026,-1.2027,-1.2027,-1.2056,-1.2056,-1.2056,-1.2056,-1.2118,-1.212,-1.2123,0,0,0,0,0,0,0,0,0,0,0,0,0,-1.1912,-1.1862,-1.1961,-1.1984,-1.1987,-1.2026,-1.2027,-1.2028,-1.2056,-1.2056,-1.2056,-1.2055,-1.2118,-1.212,-1.2123,-1.2142,0,0,-1.2131,-1.2132,0,0,0,0,0,0,0,0,-1.1909,-1.1915,-1.198,-1.1983,-1.1986,-1.2033,-1.2014,-1.2066,-1.2056,-1.203,-1.2056,-1.2055,-1.209,-1.2095,-1.2107,-1.2145,-1.2147,-1.2131,-1.2133,-1.2134,-1.2135,0,0,0,0,0,0,0,-1.1905,-1.1913,-1.1986,-1.1981,-1.1985,-1.1991,-1.1998,-1.2024,-1.206,-1.2032,-1.2034,-1.2042,-1.2092,-1.2105,-1.2109,-1.2148,-1.2131,-1.2133,-1.2135,-1.2136,-1.2205,-1.2206,0,0,0,0,0,0,-1.1898,-1.191,-1.1984,-1.1988,-1.1946,-1.1993,-1.2001,-1.2018,-1.206,-1.2066,-1.2042,-1.2043,-1.21,-1.2106,-1.2111,-1.2137,-1.2134,-1.2136,-1.2138,-1.2205,-1.2205,-1.2206,0,0,0,0,0,0,-1.1896,-1.1904,-1.1982,-1.195,-1.196,-1.1995,-1.2013,-1.2019,-1.2032,-1.2067,-1.2073,-1.2049,-1.21,-1.2108,-1.2134,-1.2139,-1.2138,-1.214,-1.2205,-1.2205,-1.2206,-1.2188,0,0,0,0,0,0,-1.1893,-1.1903,-1.1911,-1.195,-1.1962,-1.2004,-1.2014,-1.202,-1.2037,-1.2039,-1.2075,-1.2081,-1.2101,-1.213,-1.2137,-1.2143,-1.2142,-1.2205,-1.2205,-1.2205,-1.2188,-1.2187,-1.2187,0,0,0,0,0,-1.1889,-1.1903,-1.1911,-1.192,-1.1972,-1.2004,-1.2011,-1.2035,-1.2037,-1.2045,-1.2068,-1.208,-1.2138,-1.2133,-1.2141,-1.2147,-1.2204,-1.2205,-1.2205,-1.2188,-1.2187,-1.2187,0,0,0,0,0,0,-1.1862,-1.1908,-1.1918,-1.1945,-1.1971,-1.2009,-1.202,-1.2033,-1.2058,-1.2059,-1.2086,-1.2094,-1.2118,-1.2136,-1.2129,-1.2169,-1.2172,-1.2174,-1.2156,-1.2156,-1.2155,-1.215,-1.2144,0,0,0,0,0,-1.186,-1.1883,-1.1921,-1.1941,-1.1954,-1.1985,-1.1999,-1.2016,-1.2043,-1.2054,-1.2078,-1.2103,-1.2128,-1.2143,-1.2167,-1.2191,-1.2199,-1.2199,-1.2199,-1.2198,-1.22,-1.2214,-1.2215,-1.2208,-1.2208,-1.2208,0,0,-1.1854,-1.1882,-1.1895,-1.1937,-1.1958,-1.1981,-1.1993,-1.2017,-1.2034,-1.2057,-1.2084,-1.2103,-1.2133,-1.2159,-1.2171,-1.2174,-1.2204,-1.2199,-1.2198,-1.22,-1.2215,-1.2215,-1.2216,-1.2208,-1.2208,-1.2208,0,0,-1.1856,-1.188,-1.1899,-1.1922,-1.1955,-1.1976,-1.1981,-1.2017,-1.2031,-1.2059,-1.2077,-1.2098,-1.2138,-1.2159,-1.2175,-1.2187,-1.2199,-1.2194,-1.2191,-1.2205,-1.2205,-1.2206,-1.221,-1.2211,-1.2195,-1.2195,-1.2195,0,-1.1845,-1.1881,-1.1907,-1.1931,-1.1948,-1.1972,-1.1992,-1.2012,-1.2051,-1.2062,-1.2065,-1.2118,-1.2139,-1.2171,-1.2174,-1.2186,-1.2192,-1.219,-1.2203,-1.2204,-1.2205,-1.221,-1.2211,-1.2194,-1.2194,-1.2195,-1.2195,0,-1.1866,-1.189,-1.1902,-1.1941,-1.196,-1.1981,-1.2011,-1.2027,-1.2042,-1.2062,-1.209,-1.2118,-1.2148,-1.2157,-1.2171,-1.219,-1.2191,-1.2198,-1.2202,-1.2205,-1.2209,-1.2211,-1.2193,-1.2194,-1.2194,-1.2194,0,0,-1.1852,-1.1906,-1.191,-1.1929,-1.1968,-1.1987,-1.2009,-1.2041,-1.2054,-1.208,-1.21,-1.2134,-1.2142,-1.216,-1.2177,-1.2189,-1.2197,-1.2195,-1.2196,-1.2194,-1.222,-1.2215,-1.2216,-1.2205,-1.2206,-1.2206,-1.2218,0,-1.1859,-1.1902,-1.1927,-1.1958,-1.1981,-1.2005,-1.2024,-1.205,-1.207,-1.2092,-1.2114,-1.2138,-1.2146,-1.2157,-1.217,-1.2193,-1.2202,-1.2193,-1.2223,-1.2224,-1.2215,-1.2219,-1.2212,-1.2222,-1.222,-1.222,-1.222,0,-1.1873,-1.1901,-1.1935,-1.1973,-1.1984,-1.2001,-1.2032,-1.2053,-1.2083,-1.2097,-1.2118,-1.2135,-1.2159,-1.2162,-1.2195,-1.2188,-1.2202,-1.2215,-1.2216,-1.222,-1.2222,-1.2222,-1.2226,-1.2227,-1.2223,-1.2223,-1.2223,0,-1.186,-1.1906,-1.1932,-1.1947,-1.1992,-1.2004,-1.2023,-1.2053,-1.207,-1.2097,-1.2109,-1.2137,-1.2153,-1.2175,-1.2199,-1.2199,-1.223,-1.2235,-1.2242,-1.2241,-1.2247,-1.2246,-1.2253,-1.2256,-1.2256,-1.2256,-1.2256,0,-1.1866,-1.1886,-1.1927,-1.1944,-1.1967,-1.1996,-1.2018,-1.2038,-1.2065,-1.2086,-1.2107,-1.2126,-1.2157,-1.2179,-1.2198,-1.2224,-1.223,-1.2242,-1.2246,-1.224,-1.2238,-1.2249,-1.2249,-1.2257,-1.2257,-1.2256,-1.2256,0,-1.1854,-1.1883,-1.1914,-1.1954,-1.1965,-1.198,-1.2015,-1.2031,-1.2053,-1.2079,-1.2086,-1.212,-1.2147,-1.2174,-1.221,-1.2223,-1.2248,-1.2255,-1.2238,-1.2241,-1.2247,-1.2246,-1.226,-1.2264,-1.2265,-1.2264,-1.2264,0,-1.1856,-1.1872,-1.1915,-1.1931,-1.195,-1.1975,-1.1994,-1.2022,-1.2041,-1.2077,-1.2089,-1.2118,-1.2144,-1.2186,-1.2213,-1.2242,-1.2249,-1.2252,-1.2253,-1.2246,-1.2249,-1.2248,-1.225,-1.2251,-1.2251,-1.2251,-1.2251,0,-1.1856,-1.187,-1.1896,-1.1928,-1.1949,-1.1975,-1.2001,-1.2013,-1.2047,-1.2066,-1.2095,-1.2115,-1.2153,-1.2182,-1.2214,-1.2233,-1.2247,-1.225,-1.2254,-1.2247,-1.2237,-1.2242,-1.2237,-1.225,-1.225,-1.225,-1.225,-1.225,-1.1851,-1.1867,-1.19,-1.1929,-1.1952,-1.1977,-1.1995,-1.2019,-1.2045,-1.2079,-1.2094,-1.2124,-1.2154,-1.2198,-1.2217,-1.224,-1.2244,-1.2248,-1.2249,-1.225,-1.2248,-1.2233,-1.2246,-1.2246,-1.2246,-1.2246,-1.2246,0,-1.1853,-1.1875,-1.1902,-1.1939,-1.1961,-1.1975,-1.2005,-1.2023,-1.2049,-1.2076,-1.2101,-1.2135,-1.2164,-1.2193,-1.2224,-1.2236,-1.2244,-1.2243,-1.2242,-1.2247,-1.2243,-1.2238,-1.2237,-1.2237,-1.2237,-1.2237,-1.2237,-1.2237,-1.1856,-1.1884,-1.1902,-1.1941,-1.1964,-1.1994,-1.201,-1.2033,-1.2055,-1.2093,-1.2117,-1.2137,-1.2165,-1.2198,-1.2224,-1.2232,-1.2242,-1.224,-1.225,-1.2246,-1.2247,-1.2247,-1.2242,-1.2242,-1.2242,-1.2251,-1.2251,-1.2251]}]]